[[{"header":{"parameterUnit":"m.s-1","parameterCategory":1,"la1":30.2991,"la2":30.254,"lo1":-89.0895,"lo2":-89.0444,"dy":0.0017,"dx":0.0017,"nx":28,"ny":28,"refTime":"2025-05-19T21:00:00:Z","depth":0,"parameterNumber":2,"parameterNumberName":"U-component_of_WINDS"},"data":[0,0,0,0,0,0,0,0,0,0,0,0,0,0,0,0,0,0,0,0,0,0,0,0,0,0,0,0,0,0,0,0,0,0,0,0,0,0,0,0,0,0,0,0,0,0,0,0,0,0,0,0,0,0,0,0,0,0,-1.1631,-1.1631,0,-1.1708,-1.1708,-1.1709,-1.1743,-1.1743,-1.1743,-1.1743,-1.1823,-1.1826,-1.1828,0,0,0,0,0,0,0,0,0,0,0,0,0,-1.1515,-1.1517,-1.163,-1.1631,-1.1632,-1.1707,-1.1708,-1.171,-1.1743,-1.1743,-1.1743,-1.1743,-1.1823,-1.1825,-1.1828,0,0,0,0,0,0,0,0,0,0,0,0,0,-1.1576,-1.1517,-1.163,-1.1658,-1.1661,-1.1707,-1.1709,-1.171,-1.1743,-1.1743,-1.1743,-1.1743,-1.1822,-1.1825,-1.1828,-1.1853,0,0,-1.1839,-1.184,0,0,0,0,0,0,0,0,-1.1572,-1.158,-1.1653,-1.1656,-1.166,-1.1715,-1.1697,-1.1758,-1.1743,-1.1712,-1.1743,-1.1742,-1.1788,-1.1794,-1.1809,-1.1857,-1.186,-1.1839,-1.1841,-1.1843,-1.1844,0,0,0,0,0,0,0,-1.1568,-1.1577,-1.1661,-1.1654,-1.1658,-1.1668,-1.1676,-1.1709,-1.175,-1.1715,-1.1717,-1.1726,-1.179,-1.1805,-1.1811,-1.1861,-1.1839,-1.1842,-1.1844,-1.1845,-1.1934,-1.1934,0,0,0,0,0,0,-1.1559,-1.1573,-1.1659,-1.1663,-1.1615,-1.167,-1.1679,-1.1698,-1.175,-1.1757,-1.1726,-1.1727,-1.18,-1.1807,-1.1814,-1.1846,-1.1843,-1.1846,-1.1848,-1.1934,-1.1934,-1.1934,0,0,0,0,0,0,-1.1556,-1.1566,-1.1656,-1.1619,-1.1631,-1.1672,-1.1693,-1.1699,-1.1715,-1.1758,-1.1766,-1.1734,-1.18,-1.1809,-1.1843,-1.185,-1.1847,-1.185,-1.1933,-1.1934,-1.1934,-1.1911,0,0,0,0,0,0,-1.1553,-1.1565,-1.1574,-1.1619,-1.1633,-1.1682,-1.1693,-1.1701,-1.1721,-1.1723,-1.1768,-1.1776,-1.18,-1.1838,-1.1846,-1.1854,-1.1853,-1.1933,-1.1933,-1.1934,-1.1911,-1.1911,-1.191,0,0,0,0,0,-1.1549,-1.1565,-1.1574,-1.1585,-1.1645,-1.1683,-1.1691,-1.1719,-1.1721,-1.1731,-1.1759,-1.1774,-1.1847,-1.1841,-1.1851,-1.186,-1.1932,-1.1933,-1.1934,-1.1912,-1.1911,-1.191,0,0,0,0,0,0,-1.1521,-1.1571,-1.1582,-1.1614,-1.1644,-1.1688,-1.1702,-1.1717,-1.1747,-1.1748,-1.1782,-1.1792,-1.1823,-1.1845,-1.1837,-1.1887,-1.1891,-1.1894,-1.1871,-1.1871,-1.187,-1.1864,-1.1856,0,0,0,0,0,-1.1518,-1.1544,-1.1587,-1.161,-1.1625,-1.1661,-1.1678,-1.1697,-1.173,-1.1743,-1.1773,-1.1804,-1.1835,-1.1854,-1.1884,-1.1915,-1.1925,-1.1926,-1.1925,-1.1925,-1.1927,-1.1945,-1.1946,-1.1937,-1.1937,-1.1937,0,0,-1.1513,-1.1544,-1.1558,-1.1606,-1.1631,-1.1658,-1.1671,-1.1699,-1.1719,-1.1747,-1.1781,-1.1804,-1.1841,-1.1874,-1.189,-1.1893,-1.1931,-1.1925,-1.1924,-1.1927,-1.1946,-1.1947,-1.1947,-1.1937,-1.1937,-1.1937,0,0,-1.1518,-1.1544,-1.1566,-1.1591,-1.1629,-1.1653,-1.1658,-1.1701,-1.1717,-1.1751,-1.1773,-1.1798,-1.1849,-1.1875,-1.1895,-1.191,-1.1925,-1.1919,-1.1915,-1.1933,-1.1934,-1.1934,-1.194,-1.1941,-1.1921,-1.1921,-1.1921,0,-1.1507,-1.1547,-1.1576,-1.1602,-1.1623,-1.1649,-1.1672,-1.1695,-1.1741,-1.1755,-1.1758,-1.1823,-1.1851,-1.189,-1.1893,-1.1908,-1.1916,-1.1914,-1.1931,-1.1932,-1.1933,-1.1939,-1.1941,-1.192,-1.192,-1.192,-1.192,0,-1.1533,-1.156,-1.1574,-1.1617,-1.1639,-1.1664,-1.1697,-1.1716,-1.1733,-1.1756,-1.1791,-1.1824,-1.1862,-1.1873,-1.189,-1.1914,-1.1915,-1.1924,-1.193,-1.1933,-1.1939,-1.1941,-1.1918,-1.1918,-1.1919,-1.1919,0,0,-1.1522,-1.158,-1.1585,-1.1605,-1.1649,-1.1671,-1.1697,-1.1733,-1.1749,-1.178,-1.1804,-1.1846,-1.1855,-1.1878,-1.1898,-1.1913,-1.1923,-1.192,-1.1922,-1.192,-1.1953,-1.1946,-1.1948,-1.1933,-1.1934,-1.1934,-1.195,0,-1.1533,-1.158,-1.1606,-1.1643,-1.1669,-1.1694,-1.1717,-1.1747,-1.177,-1.1796,-1.1822,-1.1851,-1.186,-1.1874,-1.189,-1.1918,-1.193,-1.1918,-1.1956,-1.1957,-1.1946,-1.1951,-1.1944,-1.1957,-1.1952,-1.1953,-1.1953,0,-1.1552,-1.1582,-1.162,-1.1661,-1.1673,-1.1693,-1.1729,-1.1753,-1.1788,-1.1803,-1.1828,-1.1849,-1.1878,-1.1881,-1.1922,-1.1913,-1.1931,-1.1947,-1.1948,-1.1953,-1.1955,-1.1956,-1.1961,-1.1963,-1.1957,-1.1957,-1.1956,0,-1.154,-1.159,-1.162,-1.1636,-1.1685,-1.1699,-1.172,-1.1754,-1.1774,-1.1805,-1.1819,-1.1853,-1.1872,-1.1899,-1.1928,-1.1927,-1.1966,-1.1972,-1.1981,-1.198,-1.1988,-1.1987,-1.1996,-1.1999,-1.1999,-1.1999,-1.1999,0,-1.155,-1.1573,-1.1616,-1.1634,-1.1661,-1.1691,-1.1717,-1.174,-1.177,-1.1794,-1.1819,-1.1841,-1.1878,-1.1905,-1.1928,-1.1959,-1.1967,-1.1981,-1.1987,-1.1979,-1.1977,-1.1991,-1.1991,-1.1999,-1.1999,-1.1999,-1.1999,0,-1.1542,-1.1571,-1.1605,-1.1648,-1.166,-1.1677,-1.1715,-1.1734,-1.1758,-1.1788,-1.1797,-1.1835,-1.1868,-1.1899,-1.1944,-1.1959,-1.199,-1.1998,-1.1978,-1.1981,-1.1989,-1.1988,-1.2007,-1.2012,-1.2011,-1.2011,-1.2011,0,-1.1546,-1.1564,-1.1609,-1.1626,-1.1646,-1.1674,-1.1694,-1.1725,-1.1746,-1.1787,-1.1801,-1.1836,-1.1865,-1.1916,-1.1948,-1.1983,-1.1992,-1.1996,-1.1997,-1.1988,-1.1992,-1.1991,-1.1993,-1.1995,-1.1995,-1.1995,-1.1995,0,-1.155,-1.1564,-1.1592,-1.1625,-1.1649,-1.1677,-1.1706,-1.1719,-1.1755,-1.1777,-1.1811,-1.1833,-1.1878,-1.1913,-1.195,-1.1973,-1.199,-1.1994,-1.1998,-1.1991,-1.1979,-1.1985,-1.1976,-1.1994,-1.1994,-1.1994,-1.1994,-1.1994,-1.1549,-1.1566,-1.16,-1.1631,-1.1656,-1.1682,-1.1702,-1.1728,-1.1756,-1.1795,-1.1812,-1.1846,-1.1881,-1.1933,-1.1955,-1.1983,-1.1987,-1.1993,-1.1994,-1.1995,-1.1994,-1.1974,-1.199,-1.199,-1.199,-1.199,-1.199,0,-1.1555,-1.1578,-1.1606,-1.1645,-1.1669,-1.1682,-1.1715,-1.1735,-1.1764,-1.1794,-1.1823,-1.1861,-1.1895,-1.1929,-1.1965,-1.198,-1.1989,-1.1989,-1.1988,-1.1993,-1.1988,-1.1981,-1.1981,-1.1981,-1.1981,-1.1981,-1.1981,-1.1981,-1.1561,-1.1591,-1.1609,-1.1651,-1.1675,-1.1707,-1.1725,-1.175,-1.1774,-1.1816,-1.1844,-1.1866,-1.1898,-1.1936,-1.1968,-1.1977,-1.1989,-1.1986,-1.1998,-1.1993,-1.1993,-1.1994,-1.1988,-1.1989,-1.1989,-1.2001,-1.2001,-1.2001]},{"header":{"parameterUnit":"m.s-1","parameterCategory":1,"la1":30.2991,"la2":30.254,"lo1":-89.0895,"lo2":-89.0444,"dy":0.0017,"dx":0.0017,"nx":28,"ny":28,"refTime":"2025-05-19T21:00:00:Z","depth":0,"parameterNumber":3,"parameterNumberName":"V-component_of_WINDS"},"data":[0,0,0,0,0,0,0,0,0,0,0,0,0,0,0,0,0,0,0,0,0,0,0,0,0,0,0,0,0,0,0,0,0,0,0,0,0,0,0,0,0,0,0,0,0,0,0,0,0,0,0,0,0,0,0,0,0,0,5.1213,5.1214,0,5.129,5.1291,5.1292,5.1244,5.1242,5.124,5.1238,5.1313,5.1317,5.1321,0,0,0,0,0,0,0,0,0,0,0,0,0,5.1023,5.1027,5.1213,5.1214,5.1215,5.129,5.1291,5.1292,5.1245,5.1242,5.1239,5.1237,5.1312,5.1317,5.1321,0,0,0,0,0,0,0,0,0,0,0,0,0,5.1103,5.1028,5.1213,5.1201,5.12,5.129,5.1291,5.1292,5.1245,5.1242,5.1239,5.1236,5.131,5.1316,5.1322,5.1427,0,0,5.1341,5.1344,0,0,0,0,0,0,0,0,5.1099,5.111,5.1202,5.1202,5.1202,5.1254,5.1251,5.1337,5.1246,5.1228,5.1238,5.1234,5.1296,5.1303,5.1325,5.143,5.1434,5.1341,5.1345,5.1348,5.1349,0,0,0,0,0,0,0,5.1093,5.1106,5.1243,5.1203,5.1203,5.119,5.1198,5.1267,5.128,5.123,5.1226,5.1236,5.1295,5.1319,5.1326,5.1435,5.1341,5.1347,5.135,5.1353,5.163,5.1633,0,0,0,0,0,0,5.1089,5.1102,5.1241,5.1246,5.1141,5.1196,5.1205,5.1241,5.1279,5.1282,5.1239,5.1234,5.131,5.1319,5.1329,5.1454,5.1348,5.1353,5.1357,5.1626,5.163,5.1634,0,0,0,0,0,0,5.1085,5.1102,5.1238,5.1173,5.119,5.1203,5.1244,5.1244,5.1268,5.1286,5.1288,5.1261,5.1308,5.132,5.1403,5.1456,5.1356,5.1362,5.1622,5.1627,5.1632,5.1705,0,0,0,0,0,0,5.108,5.1101,5.1141,5.1175,5.1193,5.1312,5.1247,5.1248,5.1279,5.1272,5.1307,5.131,5.1306,5.1394,5.1409,5.1462,5.1367,5.1617,5.1624,5.1631,5.1698,5.1712,5.1724,0,0,0,0,0,5.1073,5.1158,5.1144,5.1161,5.1245,5.1315,5.1326,5.1321,5.1283,5.1324,5.1335,5.1309,5.1447,5.1403,5.1419,5.1475,5.1614,5.1622,5.163,5.1692,5.1709,5.1724,0,0,0,0,0,0,5.113,5.1162,5.1147,5.1245,5.1278,5.1307,5.1358,5.134,5.1383,5.1376,5.1366,5.1375,5.1461,5.1476,5.1426,5.1578,5.1524,5.1536,5.1566,5.1582,5.1595,5.159,5.1372,0,0,0,0,0,5.1154,5.121,5.1234,5.1319,5.1336,5.1345,5.1375,5.1369,5.1402,5.1415,5.1433,5.1466,5.1516,5.155,5.1598,5.1699,5.1706,5.1746,5.1759,5.177,5.1781,5.1835,5.1853,5.1662,5.1662,5.1661,0,0,5.1204,5.1228,5.1264,5.1331,5.1355,5.1413,5.1357,5.1419,5.1461,5.1424,5.1504,5.1519,5.1554,5.1647,5.1689,5.1662,5.1835,5.1781,5.1789,5.1794,5.1846,5.1864,5.188,5.1667,5.1666,5.1665,0,0,5.1324,5.1348,5.1421,5.1448,5.1486,5.1491,5.1509,5.1541,5.155,5.163,5.1603,5.1653,5.174,5.1767,5.1792,5.1922,5.1899,5.1938,5.2008,5.2061,5.2076,5.2089,5.2136,5.2153,5.1948,5.1949,5.1949,0,5.1381,5.1467,5.1461,5.1526,5.1556,5.1526,5.16,5.1625,5.1677,5.1698,5.1667,5.1777,5.1799,5.1898,5.193,5.1951,5.197,5.1934,5.2075,5.2088,5.21,5.2145,5.2162,5.1953,5.1952,5.1952,5.1952,0,5.1535,5.1595,5.1649,5.1702,5.1737,5.1806,5.181,5.1846,5.1837,5.1845,5.1926,5.1951,5.2004,5.2027,5.2017,5.2124,5.2107,5.2076,5.2021,5.2123,5.2165,5.2182,5.1959,5.1958,5.1956,5.1955,0,0,5.1693,5.1742,5.1762,5.1785,5.1825,5.1871,5.1938,5.199,5.2022,5.2059,5.2114,5.2189,5.2161,5.219,5.2183,5.223,5.2332,5.2193,5.2194,5.2218,5.2451,5.2474,5.2494,5.2317,5.232,5.2322,5.2448,0,5.1816,5.1935,5.1931,5.2041,5.2097,5.2069,5.2127,5.2158,5.2167,5.2214,5.2223,5.2277,5.2236,5.2253,5.2298,5.231,5.2378,5.2301,5.2368,5.237,5.236,5.2516,5.254,5.2658,5.2464,5.2467,5.2469,0,5.1976,5.2019,5.2135,5.2167,5.219,5.2243,5.2291,5.2336,5.237,5.2373,5.2405,5.2391,5.2458,5.2402,5.2494,5.2441,5.2468,5.2478,5.2482,5.2489,5.2426,5.2526,5.2695,5.2713,5.2494,5.2492,5.249,0,5.208,5.2167,5.2247,5.2268,5.2308,5.2345,5.2363,5.2394,5.2426,5.2467,5.2487,5.2535,5.2562,5.2599,5.2598,5.2557,5.2691,5.2635,5.2695,5.2695,5.2725,5.2723,5.2901,5.2742,5.2742,5.2741,5.2741,0,5.2218,5.229,5.2295,5.2345,5.2424,5.2419,5.2497,5.2511,5.2539,5.259,5.2568,5.2616,5.2612,5.266,5.266,5.2736,5.2748,5.2752,5.2751,5.2754,5.2754,5.2772,5.2764,5.2746,5.2745,5.2744,5.2743,0,5.2348,5.2354,5.244,5.2471,5.248,5.2538,5.2563,5.261,5.2617,5.2682,5.2697,5.2708,5.2764,5.2766,5.283,5.283,5.2923,5.2912,5.2912,5.291,5.2971,5.2965,5.3166,5.3192,5.3017,5.3018,5.302,0,5.2435,5.249,5.2527,5.2561,5.2581,5.2635,5.2667,5.2664,5.2698,5.2741,5.2782,5.2836,5.288,5.297,5.2983,5.3032,5.3023,5.309,5.303,5.3032,5.3024,5.3021,5.3026,5.3102,5.3104,5.3105,5.3107,0,5.2591,5.2591,5.2639,5.2689,5.2729,5.2767,5.2803,5.2831,5.2832,5.2871,5.2929,5.2963,5.3028,5.3082,5.313,5.3147,5.3127,5.3125,5.3142,5.3146,5.3144,5.3146,5.2944,5.3121,5.3119,5.3118,5.3118,5.3117,5.2702,5.275,5.2784,5.2838,5.2865,5.2899,5.2944,5.2957,5.3006,5.306,5.3054,5.3118,5.315,5.3212,5.3233,5.3282,5.3259,5.3283,5.3289,5.3295,5.3302,5.3136,5.3291,5.329,5.329,5.329,5.3289,0,5.2857,5.2877,5.2927,5.2979,5.3021,5.2999,5.3038,5.3075,5.3132,5.3163,5.3206,5.3272,5.3324,5.3342,5.3392,5.3428,5.342,5.3442,5.3439,5.3443,5.332,5.33,5.3447,5.3447,5.3447,5.3447,5.3447,5.3447,5.2942,5.3022,5.3026,5.3118,5.3137,5.3201,5.3225,5.3256,5.3281,5.3356,5.34,5.3411,5.3437,5.3489,5.3535,5.3539,5.3559,5.3584,5.3584,5.3468,5.3452,5.3437,5.3419,5.3588,5.3588,5.3703,5.3705,5.3705]}]]